Weather Roundup
Issued by NWS Chicago, IL

Home | Current Version | Previous Version | Graphics & Text | Print | Product List | Glossary On
Versions: 1 2 3 4 5 6 7 8 9 10 11 12 13 14 15 16 17 18 19 20 21 22 23 24 25 26 27 28 29 30 31 32 33 34 35 36 37 38 39 40 41 42 43 44 45 46 47 48 49 50
773
NZUS59 KLOT 230509
HRRLOT

CHICAGO AREA WEATHER ROUNDUP
NATIONAL WEATHER SERVICE CHICAGO/ROMEOVILLE IL
1200 AM CDT SUN JUL 23 2017

NOTE: "FAIR" INDICATES FEW OR NO CLOUDS BELOW 12,000 FEET WITH NO
SIGNIFICANT WEATHER AND/OR OBSTRUCTIONS TO VISIBILITY.

* THESE STATIONS ARE NOT UNDER NWS QUALITY CONTROL. THEY ALSO MAY NOT
  REPORT WEATHER SUCH AS PRECIPITATION OR FOG.

ILZ005-006-012>014-019>023-230600-
NORTHEAST ILLINOIS

CITY           SKY/WX    TMP DP  RH WIND       PRES   REMARKS
OHARE          PTCLDY    74  68  81 SE6       29.79F
MIDWAY         PTCLDY    76  70  82 E5        29.80F
AURORA         CLEAR     74  73  97 W3        29.81F
LANSING*       PTCLDY    74  68  82 CALM      29.81S
JOLIET*        PTCLDY    76  75  95 CALM      29.80F
WAUKEGAN       PTCLDY    70  70 100 SW5       29.79F
DUPAGE AIRPORT CLEAR     74  72  93 CALM      29.80F
WHEELING       CLEAR     73  72  96 CALM      29.81F
MORRIS*        CLEAR     75  73  94 CALM      29.79F
LEWIS AIRPORT* CLEAR     73  68  83 E5        29.81S
NORTHERLY ISL    N/A     72  69  90 CALM        N/A
$$

WIZ051-052-058>065-066-070>072-230600-
SOUTHEAST WISCONSIN

CITY           SKY/WX    TMP DP  RH WIND       PRES   REMARKS
MILWAUKEE      PTCLDY    72  69  90 SW5       29.80F
KENOSHA*       PTCLDY    72  70  93 SW5       29.81F
RACINE*        PTCLDY    70  70 100 S3        29.81F FOG
WAUKESHA       PTCLDY    68  68 100 CALM      29.82F
WEST BEND      CLEAR     68  68 100 CALM      29.81S
$$

INZ001>003-010>013-019-020-230600-
NORTHWEST INDIANA

CITY           SKY/WX    TMP DP  RH WIND       PRES   REMARKS
GARY*          PTCLDY    72  70  93 CALM      29.81F
MICHIGAN CITY* NOT AVBL
RENSSELAER*    NOT AVBL
VALPARAISO     CLEAR     71  70  96 CALM      29.83R
$$

LMZ740>746-230600-
SOUTHERN LAKE MICHIGAN

STATION/POSITION TIME  SKY/WX   TEMP WIND        PRES    VSBY
                                AIR  DIR/SP/G
                 (UTC)          (F)  (DEG/KT/KT) (MB)    (MI)
HARRISON CRIB    0440            74     CALM       N/A
BURNHAM HARBOR   0500            72                N/A
CALUMET HARBOR   0442            73   40/  2/  2 1009.1F
BURNS HARBOR     0440            74   80/  5/  6 1010.2S
MICHIGAN CITY    0440            73   70/  2/  3   N/A
$$

ABBREVIATIONS USED IN REMARKS
   TC - TEMPERATURE IN CELSIUS
  WCI - WIND CHILL INDEX
   HX - HEAT INDEX
  VSB - VISIBILITY
$$




USA.gov is the U.S. government's official web portal to all federal, state and local government web resources and services.